Location: Grossmotten
(48.5500°N, 15.3833°E)
Time: 22:05:15
(UTC+00:00)

Okean O Rocket - Pass Details

Date: 15 November 2019
Orbit: 622 x 645 km, 98.2° (Epoch: 11 December)

Event Time Altitude Azimuth Distance (km) Brightness Sun altitude
Rises 04:55:38 0° 11° (NNE) 2,919 5.0 -11.7°
Reaches altitude 10° 04:57:51 10° 9° (N) 2,006 4.1 -11.3°
Maximum altitude 05:02:10 67° 288° (WNW) 679 1.5 -10.6°
Drops below altitude 10° 05:06:28 10° 206° (SSW) 1,989 4.1 -9.9°
Sets 05:08:39 0° 203° (SSW) 2,892 4.9 -9.6°
